Regional Weather Roundup
Issued by NWS Bismarck, ND

Home | Current Version | Previous Version | Text Only | Print | Product List | Glossary On
Versions: 1 2 3 4 5 6 7 8 9 10 11 12 13 14 15 16 17 18 19 20 21 22 23 24 25 26 27 28 29 30 31 32 33 34 35 36 37 38 39 40 41 42 43 44 45 46 47 48 49 50
000
ASUS43 KBIS 251202
RWRBIS

NWR BROADCAST TEXT
NATIONAL WEATHER SERVICE BISMARCK ND
700 AM CDT MON JUL 25 2016

NOTE: "FAIR" INDICATES FEW OR NO CLOUDS BELOW 12,000 FEET WITH NO
SIGNIFICANT WEATHER AND/OR OBSTRUCTIONS TO VISIBILITY.


CITY           SKY/WX    TMP DP  RH WIND       PRES   REMARKS
WILLISTON      CLEAR     61  56  83 N5        29.96F
MINOT          CLEAR     62  58  86 CALM      29.98F
MINOT AFB      NOT AVBL
BISMARCK       CLEAR     60  58  92 NE6       30.01F
DICKINSON      CLEAR     56  51  84 S8        29.99S
GARRISON         N/A     60  59  96 E6        29.99F
HETTINGER ARPT CLEAR     60  50  69 CALM      30.03S
JAMESTOWN      CLEAR     60  58  92 S3        30.04R
CARRINGTON     FAIR      61  59  94 S5        30.06R
OAKES            N/A    N/A N/A N/A MISG        N/A
STANLEY        FAIR      55  55 100 E5        30.02F
$$

CITY           SKY/WX    TMP DP  RH WIND       PRES   REMARKS
GRAND FORKS    PTCLDY    62  59  90 W3        30.01R
GRAND FORKS AF CLEAR     63  60  90 VRB1      30.01R
DEVILS LAKE    CLEAR     60  59  96 CALM      30.03S
FARGO          CLEAR     62  57  83 SW6       30.03R
GRAFTON        FAIR      63  61  94 W8        30.02R
GWINNER        FAIR      59  57  94 SW6       30.06R
LANGDON        FAIR      55  55 100 CALM      30.03S
ROLLA          FAIR      57  57 100 CALM      30.04S
$$

CITY           SKY/WX    TMP DP  RH WIND       PRES   REMARKS
ABERDEEN       PTCLDY    59  55  87 CALM      30.06R
MOBRIDGE       CLEAR     68  57  68 SE10      30.02R
BUFFALO          N/A     63  50  62 SE3       29.97S
RAPID CITY     CLEAR     65  56  72 S9        30.08S
GLASGOW        CLEAR     59  52  77 E8        29.97S
SIDNEY         CLEAR     57  53  86 NW6       29.96S
WOLF POINT     CLEAR     54  53  97 CALM      29.97S
GLENDIVE       CLEAR     57  50  77 N5        29.98S
MILES CITY     CLEAR     65  47  52 SE6       29.97R
BAKER          CLEAR     56  50  80 SE5       30.02S
$$

CITY           SKY/WX    TMP DP  RH WIND       PRES   REMARKS
BILLINGS       PTCLDY    64  42  44 W7        30.05R
GREAT FALLS    CLEAR     50  42  74 S3        30.08R
$$





USA.gov is the U.S. government's official web portal to all federal, state and local government web resources and services.